Meteo Giornale » Osservazioni meteo Svezia » Stockholm-Arlanda

ore: 15:50 - Osservazioni Meteo Stockholm-Arlanda
Lat. 59° 39' N Lon. 17° 57' E Alt. 38 metri s.l.m.

sereno Europe/Stockholm

20 °C

Sereno

Temp. 24 Ore

11 °C

20 °C

Sud/Sud-Est

31.5 Km/h

Dew point 14 °C

Umidità 68 %

Visibilità  10 Km

Il sole sorge alle ore 06:29

Il sole tramonta alle ore 18:53

Data e Ora Cielo e Fenomeni T °C DP °C Um. % Pres. hPa Vis. km Vento km/h
Oggi h: 15:50 sereno Sereno 20 14 68 994 10 S/SE 31.5
Oggi h: 15:20 sereno Sereno 20 13 64 995 10 S/SE 33.3
Oggi h: 14:50 sereno Sereno 19 13 68 995 10 S/SE 27.8
Oggi h: 14:20 sereno Sereno 19 14 72 997 10 S/SE 27.8
Oggi h: 13:50 sereno Sereno 19 14 72 997 10 S/SE 24
Oggi h: 13:20 sereno Sereno 18 15 82 998 10 S/SE 22.2
Oggi h: 12:50 sereno Sereno 18 15 82 999 10 S/SE 20.3
Oggi h: 12:20 sereno Sereno 18 15 82 1000 10 S/SE 18.5
Oggi h: 11:50 sereno Sereno 18 15 82 1000 10 S/SE 18.5
Oggi h: 11:20 sereno Sereno 17 15 88 1001 10 S/SE 20.3
Oggi h: 10:50 sereno Sereno 17 15 88 1002 10 S/SE 24
Oggi h: 10:20 sereno Sereno 17 15 88 1002 10 S/SE 24
Oggi h: 09:50 sereno Sereno 16 15 93 1002 10 S/SE 24
Oggi h: 09:20 sereno Sereno 15 14 93 1002 10 S/SE 22.2
Oggi h: 08:50 sereno Sereno 14 14 100 1003 10 S/SE 18.5
Oggi h: 08:20 molto_nuvoloso Molto Nuvoloso 13 13 100 1003 10 S/SE 16.7
Oggi h: 07:50 molto_nuvoloso Molto Nuvoloso 12 12 100 1003 9 S/SE 16.7
Oggi h: 07:20 coperto_pioggia Pioggia Debole 11 11 100 1004 9 E 13
Oggi h: 06:50 molto_nuvoloso Molto Nuvoloso 11 10 93 1005 10 E 13
Oggi h: 06:20 coperto_pioggia Pioviggine 11 10 93 1005 5 E/NE 9.3
Oggi h: 05:50 coperto_pioggia Pioviggine 11 10 93 1006 5 SE 7.4
Oggi h: 05:20 coperto_pioggia Pioviggine 11 9 87 1006 10 S 11.1
Oggi h: 04:20 coperto_pioggia Pioggia Debole 12 9 81 1007 10 S 11.1
Oggi h: 03:50 sereno Sereno 12 9 81 1007 10 S 11.1
Oggi h: 03:20 sereno Sereno 11 9 87 1007 10 S 13
Oggi h: 02:50 sereno Sereno 11 8 81 1007 10 S 11.1
Oggi h: 02:20 sereno Sereno 12 8 76 1007 10 S/SO 13
Oggi h: 01:50 sereno Sereno 12 8 76 1007 10 S/SO 16.7
Oggi h: 01:20 sereno Sereno 12 8 76 1008 10 SO 13
Oggi h: 00:50 sereno Sereno 12 8 76 1008 10 SO 14.8
Oggi h: 00:20 sereno Sereno 12 8 76 1008 10 SO 20.3
Ieri h: 23:50 sereno Sereno 12 8 76 1008 10 O/SO 18.5
Ieri h: 23:20 sereno Sereno 12 7 71 1008 10 SO 22.2
Ieri h: 22:20 sereno Sereno 13 6 62 1008 10 O/SO 24
Ieri h: 21:50 sereno Sereno 13 6 62 1008 10 O/SO 25.9
Ieri h: 21:20 sereno Sereno 14 7 62 1007 10 SO 25.9
Ieri h: 20:50 nuvoloso Nuvoloso 14 7 62 1007 10 O/SO 25.9
Ieri h: 20:20 molto_nuvoloso Molto Nuvoloso 14 9 71 1007 10 O 25.9
Ieri h: 19:50 molto_nuvoloso Molto Nuvoloso 15 8 62 1006 10 SO 27.8
Ieri h: 19:20 sereno Sereno 16 9 63 1006 10 SO 27.8
Ieri h: 18:50 sereno Sereno 16 8 58 1006 10 SO 33.3
Ieri h: 18:20 coperto Coperto 16 8 58 1006 10 SO 25.9
Ieri h: 17:50 molto_nuvoloso Molto Nuvoloso 16 8 58 1006 10 SO 24
Ieri h: 17:20 molto_nuvoloso Molto Nuvoloso 16 8 58 1006 10 SO 29.6
Ieri h: 16:50 sereno Sereno 16 7 55 1006 10 SO 27.8